sat.trackr.live / text

‹ back to catalog

STARLINK-35007

NORAD 65287 · 2025-184Q

PAYLOAD ACTIVE UNKNOWN

§ Identity

Operator
Country
US
Launch date
2025-08-22
Launch site
AFWTR
Launch vehicle
Mass (kg)
RCS (m²)

Purposes: comms

External: N2YO · Heavens-Above · Gunter

§ Orbital elements

Epoch: 2026-05-25T03:43:53.205888Z

Period
95.63 min
Inclination
97.4501°
Eccentricity
0.0001332
Mean motion
15.05741659 rev/d
Perigee alt
548.3 km
Apogee alt
550.2 km
Semi-major
6,927.4 km
B*
3.2428e-3
RAAN
197.6182°
Arg perigee
103.3159°
Mean anomaly
256.8217°
Rev number
4,274

§ Raw data

STARLINK-350071 65287U 25184Q   26145.15547692  .00047157  00000+0  32428-2 0  99992 65287  97.4501 197.6182 0001332 103.3159 256.8217 15.05741659 42742

JSON: /api/v1/satellites/65287 · /tle

For live sub-satellite position, see the globe view (requires WebGL).

§ Visibility from observer

Set your observer location to see the next 7 days of passes ≥ 10°. The values pass through the URL so the page stays shareable.

No JS? Fill the form by hand. The geolocation button needs JavaScript.